Location: Most
(50.5133°N, 13.6207°E)
Time: 14:25:49
(UTC+02:00)

ISS - Pass Details

Date: 13 September 2017
Orbit: 402 x 407 km, 51.6° (Epoch: 21 September)

Event Time Altitude Azimuth Distance (km) Brightness Sun altitude
Exits shadow 03:54:19 32° 75° (ENE) 724 -2.1 -24.3°
Drops below altitude 10° 03:56:14 10° 77° (ENE) 1,473 -0.2 -24.1°
Sets 03:58:19 0° 78° (ENE) 2,335 1.0 -23.8°
